Flight Track Log - Related Links

Times and Time Zones

All times are in EST time to prevent confusion due to time zone crossing. See the JBU6411 flight status page for this flight to view local times or setup timezone preferences in your user account.

Time Position Orientation Groundspeed Altitude Reporting Facility
EST Latitude Longitude Course Direction KTS MPH feet Rate Location/Type
Fri 11:54:42 PM 30.0950 -82.6142 160° South 366 421 3,900  Level Jacksonville Center
Fri 11:55:42 PM 30.0322 -82.5878 160° South 340 391 7,400 3,500 Climbing Jacksonville Center
Fri 11:56:42 PM 29.9444 -82.5475 158° South 319 367 10,900 2,600 Climbing Jacksonville Center
Fri 11:57:42 PM 29.8461 -82.4878 152° Southeast 346 398 12,600 2,550 Climbing Jacksonville Center
Fri 11:58:42 PM 29.7417 -82.4286 154° Southeast 389 448 16,000 2,150 Climbing Jacksonville Center
Fri 11:59:42 PM 29.6392 -82.3669 152° Southeast 413 475 16,900 450 Climbing Jacksonville Center
Sat 12:00:42 AM 29.5344 -82.3078 154° Southeast 420 483 16,900 -500 Level Jacksonville Center
Sat 12:01:42 AM 29.4361 -82.2489 152° Southeast 410 472 15,900 -1,000 Descending Jacksonville Center
Sat 12:02:42 AM 29.3378 -82.1922 153° Southeast 404 465 14,900 -1,050 Descending Jacksonville Center
Sat 12:03:42 AM 29.2414 -82.1381 154° Southeast 398 458 13,800 -1,250 Descending Jacksonville Center
Sat 12:04:42 AM 29.1450 -82.0842 154° Southeast 393 452 12,400 -1,250 Descending Jacksonville Center
Sat 12:05:42 AM 29.0528 -82.0303 153° Southeast 382 440 11,300 -750 Descending Jacksonville Center
Sat 12:06:42 AM 28.9606 -81.9767 153° Southeast 382 440 10,900 -200 Descending Jacksonville Center
Sat 12:07:42 AM 28.8703 -81.9158 149° Southeast 382 440 10,900 48 Level Jacksonville Center
Sat 12:08:46 AM 28.8000 -81.8000 125° Southeast 384 442 11,000 48 Climbing Orlando TRACON
Sat 12:09:46 AM 28.7500 -81.7000 120° Southeast 385 443 11,000 -48 Level Orlando TRACON
Sat 12:10:52 AM 28.6833 -81.5833 123° Southeast 345 397 10,900 -1,000 Descending Orlando TRACON
Sat 12:11:52 AM 28.6333 -81.4833 120° Southeast 339 390 8,900 -2,000 Descending Orlando TRACON
Sat 12:12:52 AM 28.5833 -81.4167 130° Southeast 298 343 6,900 -1,800 Descending Orlando TRACON
Sat 12:13:52 AM 28.5000 -81.4167 180° South 280 322 5,300 -950 Descending Orlando TRACON
Sat 12:14:52 AM 28.4333 -81.4167 180° South 247 284 5,000 -550 Descending Orlando TRACON
Sat 12:15:52 AM 28.3667 -81.4167 180° South 232 267 4,200 -887 Descending Orlando TRACON
Sat 12:16:47 AM 28.3167 -81.4167 180° South 204 235 3,300 -730 Descending Orlando TRACON
Sat 12:17:47 AM 28.2667 -81.4000 164° South 168 193 2,800 -650 Descending Orlando TRACON
Sat 12:18:47 AM 28.2667 -81.3500 90° East 154 177 2,000 -400 Descending Orlando TRACON
Sat 12:19:47 AM 28.3000 -81.3167 41° Northeast 121 139 2,000 -50 Level Orlando TRACON
Sat 12:20:47 AM 28.3333 -81.3167 360° North 117 135 1,900 -400 Descending Orlando TRACON
Sat 12:21:47 AM 28.3667 -81.3167 360° North 117 135 1,200 -650 Descending Orlando TRACON
Sat 12:22:47 AM 28.4000 -81.3167 360° North 118 136 600 -600 Descending Orlando TRACON
Sat 12:24:00 AM 28.4167 -81.3000 24° Northeast  Level FlightAware Approximate
Sat 12:31:00 AM 28.4294 -81.3090 24° Northeast  Level Estimated
Sat 12:32:00 AM 28.4294 -81.3090 24° Northeast  Level Estimated
Sat 12:33:00 AM 28.4294 -81.3090 24° Northeast  Level Estimated
Sat 12:34:00 AM 28.4294 -81.3090 24° Northeast  Level Estimated

Login

Don't have an account? Register now (free) for customized features, flight alerts, and more!